Voltar ao catálogo

STARLINK-34034

AtivoComunicaçõesVLEO
NORAD 63947·PAYLOAD·🇺🇸 United States

Lançado May 13, 2025 de Vandenberg Space Force Base

Loading…

Próximas Passagens (próximas 24 horas)

TLE

AtualizadoSource: CelesTrak SupGP

Época: Sep 15, 2026, 03:12 UTC

1 63947C 25098X   26258.13381944  .00006734  00000+0  23426-3 0  2586
2 63947  70.0000 154.9770 0003236 273.3983 141.7851 15.29572746    16

Acompanhe STARLINK-34034 em tempo real com AllMySat

Download on the App Store